Theta_e
326 326 324 324 323 320 320 322 320 320 318 319 318 319 319 316 316 316 315 314 312 311 313 315 316 317 317 317 318 318 319 319 318 318 318 317 317 317 316 315 315 316 318 322
326 322 319 319 322 325 322 322 322 319 318 318 318 317 316 315 314 314 315 314 314 313 312 313 314 314 315 316 315 315 315 316 315 315 315 315 315 315 315 317 317 319 323 324
321 318 318 321 322 324 324 322 320 320 319 316 315 315 315 314 313 313 313 314 314 315 315 313 311 313 313 313 314 314 314 314 314 313 313 314 315 316 318 319 319 320 325 328
321 318 320 321 321 321 324 319 319 321 322 321 313 315 311 310 309 313 313 313 314 313 312 311 310 311 312 313 312 312 312 311 312 312 312 314 316 318 320 320 320 320 322 323
314 318 319 321 320 320 319 319 320 320 321 319 318 318 312 311 310 309 309 310 310 309 310 309 309 312 313 311 310 310 309 309 309 310 312 314 316 318 318 317 316 318 321 322
313 311 316 317 317 319 317 317 316 315 316 316 315 315 309 309 310 309 309 308 308 306 305 304 307 308 309 309 308 307 306 307 307 309 311 313 316 317 316 316 317 317 318 319
316 316 313 313 317 316 316 317 318 318 314 315 311 314 310 308 309 309 309 309 307 305 305 305 304 303 304 305 305 305 304 304 305 307 309 311 313 315 317 317 317 316 315 315
316 311 315 313 315 318 318 317 317 317 320 314 311 316 314 310 308 306 306 305 304 305 305 304 303 302 303 303 303 302 302 303 303 304 306 307 308 310 313 313 314 313 312 313
313 313 311 312 312 314 318 321 314 313 300 309 311 309 307 307 307 307 306 306 306 305 305 304 302 302 302 302 302 302 301 301 301 301 302 303 304 305 307 309 309 309 308 307
312 311 311 312 314 314 317 315 319 312 313 310 311 310 311 309 306 306 306 305 305 305 304 303 301 302 302 302 302 301 300 300 300 299 299 300 301 302 303 303 303 302 301 300
313 314 313 313 315 316 316 318 318 317 315 314 310 309 304 307 307 305 304 305 304 303 303 303 301 302 303 302 302 301 300 299 299 298 297 296 297 298 298 298 298 298 297 296
312 314 312 313 312 312 314 315 318 320 314 310 311 317 305 304 304 303 307 305 303 303 302 302 302 302 301 302 301 301 300 299 299 298 296 296 295 294 294 294 295 295 295 294
314 315 316 314 313 312 313 314 314 313 310 316 315 314 306 307 307 305 306 306 305 306 304 303 301 299 301 302 302 302 301 300 298 297 296 295 294 292 292 292 292 291 290 290
313 313 312 312 310 313 315 314 314 315 317 316 315 314 312 309 308 306 305 304 303 303 303 302 300 299 301 302 301 301 301 301 300 297 295 294 293 292 291 290 289 289 289 289
312 313 312 312 310 312 314 315 314 316 316 317 315 313 313 312 310 307 307 306 306 305 304 303 302 302 303 302 302 302 301 300 299 296 295 294 293 291 290 288 287 287 287 287
304 313 312 314 312 312 314 312 311 314 314 314 314 314 312 311 308 307 307 306 305 305 304 303 302 301 302 303 303 303 301 300 297 295 295 293 292 291 288 287 286 286 286 286
305 306 302 297 308 311 314 312 312 312 312 313 315 313 312 311 310 308 306 305 305 304 303 302 302 302 303 303 303 302 303 300 296 295 293 291 291 290 288 286 285 285 285 285
304 304 303 297 303 313 309 306 309 311 311 310 311 311 310 310 308 305 304 303 303 302 301 301 300 300 301 300 299 299 300 300 296 293 291 290 288 288 286 285 284 283 283 283
302 304 301 304 301 308 309 308 307 310 310 309 309 309 308 307 303 306 304 302 301 299 298 299 298 296 296 295 295 296 297 296 293 291 289 288 286 286 284 283 283 282 282 282
303 302 306 300 306 311 308 306 304 305 309 304 307 307 307 304 306 305 299 298 297 298 297 295 295 294 293 293 293 292 293 292 291 290 289 288 286 285 284 283 283 282 282 282
306 306 306 306 308 310 304 301 301 304 306 302 302 302 302 301 301 299 295 295 296 296 295 294 293 291 292 291 290 289 289 289 291 289 288 287 286 285 284 283 282 281 281 280
307 309 308 307 307 307 299 300 305 302 301 300 301 301 301 298 295 294 293 292 291 291 290 290 288 288 289 288 288 287 286 289 287 286 286 285 284 283 282 282 281 280 280 280
303 304 304 305 305 300 297 302 299 297 298 300 298 297 296 294 293 293 292 290 288 287 286 286 285 284 286 286 285 283 285 284 285 284 284 283 283 282 281 281 279 279 279 279
297 297 301 302 301 300 298 296 297 297 297 295 294 293 293 293 290 288 287 286 284 284 283 282 281 281 282 284 283 283 283 282 282 282 282 281 280 279 279 279 279 279 279 278
293 295 297 298 296 295 293 294 294 293 292 292 289 288 288 286 286 284 284 283 282 281 280 279 279 279 279 280 281 281 281 280 280 280 279 278 278 278 278 278 278 278 278 278
292 294 295 296 293 294 293 292 292 292 291 287 285 285 284 283 282 281 280 280 278 278 277 276 276 276 276 277 277 278 278 278 277 277 277 277 277 276 277 277 277 278 277 278
Wind_Speed
5 4 8 9 8 1 2 1 4 2 2 1 6 7 14 6 4 9 10 9 9 12 16 23 21 24 24 22 21 22 21 19 17 16 17 18 21 22 22 22 22 23 25 26
4 10 7 5 3 3 1 2 3 4 2 1 5 8 11 8 7 8 9 10 11 7 10 15 14 17 20 21 19 18 18 17 15 15 15 14 15 17 18 18 16 17 18 21
4 3 6 6 3 4 1 4 3 4 5 1 5 9 7 8 4 7 8 13 10 14 15 11 15 22 17 19 19 18 17 15 14 14 14 15 15 16 16 15 15 12 10 11
4 2 4 4 3 6 5 6 5 2 2 5 2 8 4 3 8 5 9 13 16 13 10 5 7 14 23 23 18 17 15 13 12 12 11 11 11 11 10 9 10 10 10 11
5 5 4 3 4 6 4 5 6 5 3 3 1 4 4 2 5 10 12 14 12 8 8 9 11 21 24 23 19 16 14 12 10 9 9 9 10 9 8 7 8 10 10 10
3 1 4 6 4 10 5 5 5 4 3 4 7 6 5 5 6 5 6 6 8 9 8 8 12 13 17 19 18 16 13 11 10 9 8 8 8 7 8 8 8 9 9 9
0 3 1 2 5 2 2 6 1 2 1 6 3 6 13 8 9 6 9 9 7 7 6 7 5 5 12 16 16 14 12 11 10 8 7 7 8 9 9 11 11 11 10 10
6 5 8 5 5 5 6 6 4 7 4 4 1 7 6 5 9 9 7 8 7 8 5 6 5 7 12 13 13 12 12 12 10 9 9 9 9 10 11 12 12 13 13 14
5 4 3 5 5 8 4 10 5 4 2 2 4 6 8 6 10 9 9 7 8 8 7 4 4 7 10 11 12 13 13 13 12 12 12 11 12 12 13 13 14 15 15 14
3 1 1 2 1 1 6 6 3 1 2 4 5 5 6 7 9 6 9 8 8 7 6 4 5 9 11 13 14 15 15 15 14 14 14 13 13 13 14 14 15 15 14 13
5 1 2 5 6 8 3 3 3 4 5 4 2 5 7 7 6 7 6 6 7 8 7 5 6 10 13 14 17 18 18 18 19 18 16 15 14 14 14 14 15 15 15 14
6 4 4 7 0 2 6 5 9 5 3 2 2 15 4 8 5 5 2 7 6 4 6 5 6 10 15 19 21 22 22 23 24 21 20 18 17 17 17 17 17 17 17 17
6 4 6 1 2 3 5 5 5 4 3 15 7 12 6 4 3 5 5 7 4 5 7 7 6 10 19 24 26 29 30 30 26 23 23 23 22 22 21 20 18 18 17 17
5 4 5 9 4 5 5 8 16 12 8 19 13 27 16 4 7 4 8 9 8 8 9 7 7 10 21 25 29 30 32 32 31 30 28 28 28 26 23 22 22 22 21 20
5 4 3 11 2 2 1 5 14 18 21 8 19 15 22 17 11 11 12 7 7 10 11 9 8 9 20 24 29 31 35 34 34 34 34 36 33 29 26 26 24 21 20 20
2 1 3 3 5 8 13 12 10 12 17 18 23 22 25 21 7 5 8 6 10 13 10 11 10 10 18 24 30 34 34 36 34 35 41 39 36 32 31 29 27 24 23 23
2 3 3 5 6 7 6 23 18 19 15 8 14 24 23 21 15 7 6 9 11 9 10 10 11 12 19 22 25 28 33 31 30 34 37 39 39 38 37 34 30 30 29 26
4 4 3 4 4 6 7 3 12 19 20 19 19 22 20 17 15 2 6 8 8 9 10 11 8 14 18 21 24 26 29 31 30 32 34 37 39 40 39 36 34 31 28 27
13 4 2 3 3 12 16 5 7 7 12 19 18 19 17 15 6 19 4 2 5 7 6 7 10 15 20 22 23 23 23 26 27 31 30 30 32 34 33 32 31 29 26 25
12 10 4 2 4 5 5 2 3 6 8 7 11 12 11 1 5 12 4 2 6 7 6 12 19 21 20 22 23 23 23 20 25 27 27 26 28 33 34 34 34 32 30 29
5 7 16 12 7 5 9 7 5 5 7 3 2 5 3 4 5 6 7 6 3 5 11 18 21 23 23 22 19 19 21 23 24 23 22 23 26 30 32 31 31 29 28 25
7 6 6 8 4 8 8 3 7 5 1 3 1 1 2 5 9 9 10 9 6 6 10 17 21 26 26 21 19 22 21 22 19 19 21 21 24 25 28 29 29 29 28 27
3 6 4 7 6 3 6 3 3 3 2 2 3 4 5 8 7 8 7 7 7 11 13 18 19 25 28 21 17 22 24 21 18 17 19 22 22 26 29 29 27 24 24 24
5 4 4 1 4 7 3 3 2 3 3 4 3 3 4 7 7 7 6 6 7 12 14 19 19 17 22 26 25 20 21 19 15 17 19 19 21 23 23 25 25 25 25 22
5 1 4 7 3 5 4 3 3 2 4 3 1 1 2 4 6 6 6 6 8 13 16 18 18 18 20 26 22 20 19 17 17 16 16 17 18 18 20 22 22 23 24 25
6 9 6 8 7 4 5 5 3 2 3 3 5 6 3 2 5 5 7 9 12 15 18 18 17 21 24 23 20 19 16 15 16 18 15 15 16 17 15 15 15 17 20 22
Wind_Direction
155 155 201 203 198 181 149 104 190 278 283 206 223 234 260 256 220 253 249 253 245 249 261 265 266 255 249 240 231 225 222 223 230 236 244 253 257 264 267 271 274 271 266 263
146 224 209 192 184 207 173 163 231 290 297 184 283 255 256 263 226 221 245 249 247 246 254 257 248 237 232 227 217 215 217 220 228 237 248 256 264 271 276 275 272 270 263 256
189 173 179 162 167 160 182 198 174 230 328 288 319 271 231 259 215 237 245 249 250 240 248 248 222 232 224 224 217 215 218 222 231 244 256 265 275 280 282 284 266 266 263 249
241 199 127 141 187 145 228 184 165 163 51 251 35 290 265 286 276 226 258 251 251 250 249 258 233 224 229 229 221 220 219 224 232 246 257 261 266 273 277 264 262 255 251 246
213 175 162 172 184 159 222 155 173 168 196 343 219 295 271 5 293 270 241 252 263 261 250 249 238 241 238 226 216 214 217 223 231 240 252 261 265 264 260 262 249 241 239 236
195 296 157 198 153 177 161 99 59 49 97 271 190 187 209 189 207 268 263 259 274 296 292 282 281 252 226 208 204 208 215 222 231 237 247 255 255 241 237 242 244 236 231 230
172 237 6 114 99 80 144 124 59 6 332 237 325 194 263 304 277 227 277 297 312 289 292 296 264 221 198 195 197 206 217 229 236 241 244 246 243 233 235 235 229 232 237 241
187 301 167 180 172 168 189 163 161 199 206 266 38 234 260 231 282 281 271 291 308 317 302 294 262 221 204 203 207 213 224 235 243 249 249 247 243 235 227 226 230 233 240 246
150 262 195 177 170 149 181 219 160 96 30 52 231 286 288 295 277 299 300 337 326 321 320 281 221 220 213 217 221 228 235 243 246 247 247 246 242 238 237 236 236 235 236 237
175 358 288 212 86 254 168 158 127 73 245 265 260 259 235 294 291 319 311 332 312 311 316 276 233 219 221 228 234 237 242 248 251 249 248 247 247 245 242 240 238 236 236 237
123 240 269 133 198 179 153 203 215 165 170 196 276 254 214 229 245 271 297 303 296 315 322 289 254 244 238 241 240 242 243 245 246 246 245 245 246 243 238 235 232 231 231 230
198 178 198 210 235 290 234 228 204 194 247 246 232 262 187 210 225 191 221 298 294 296 323 316 278 261 247 243 246 249 249 248 247 246 244 244 243 241 237 233 230 227 225 222
171 209 217 280 349 337 209 208 211 132 98 235 231 261 11 179 233 215 272 272 269 321 317 294 277 248 248 251 250 250 248 248 249 246 243 241 240 238 237 235 231 228 224 221
32 216 214 221 198 139 177 202 214 203 215 242 225 260 260 258 256 234 258 260 275 278 275 268 261 249 258 258 256 258 259 256 252 245 242 241 241 238 238 236 231 226 222 220
165 233 226 253 300 53 156 213 216 217 234 225 251 243 262 258 248 241 247 268 289 279 275 278 273 273 278 279 279 270 265 263 255 246 241 242 241 239 237 234 231 228 224 222
104 34 306 264 253 270 265 258 244 238 242 242 251 263 269 275 252 235 256 254 252 259 271 266 267 266 271 274 276 281 276 271 261 250 247 244 240 236 232 230 226 222 221 220
177 141 45 261 5 271 235 235 233 238 238 212 238 248 261 275 273 259 232 235 253 271 265 267 268 269 274 286 296 289 289 283 264 254 250 245 240 233 230 227 223 220 218 215
191 147 146 247 18 246 250 336 226 221 234 227 245 257 258 271 287 144 218 252 255 259 269 275 298 312 316 317 315 309 295 281 265 253 248 244 235 231 228 225 223 221 218 214
210 158 272 166 192 284 289 193 171 168 250 233 238 260 263 269 347 286 181 196 267 273 280 290 314 319 318 322 324 318 308 286 263 258 252 243 236 228 224 221 219 218 215 212
196 210 199 129 183 276 258 254 175 111 262 140 188 233 248 38 292 284 140 229 267 279 314 328 326 320 319 325 326 319 310 288 267 267 266 257 243 233 226 222 220 219 215 211
185 194 212 230 230 258 243 191 180 112 261 36 146 248 259 214 219 287 303 297 314 314 324 330 324 314 314 321 321 312 306 286 292 280 268 257 247 236 232 225 219 213 202 197
202 197 204 214 192 246 172 21 159 206 78 149 96 343 277 283 298 299 303 307 334 313 322 330 324 319 320 322 319 307 295 305 295 279 266 244 235 231 227 219 213 207 194 189
261 208 213 193 213 350 194 171 147 139 175 174 186 241 271 274 266 282 290 316 320 326 326 331 327 319 321 325 327 306 309 312 300 277 250 237 231 225 217 206 200 194 191 184
235 187 232 8 238 224 201 233 268 220 247 279 280 233 234 267 300 293 300 310 315 323 326 330 327 317 314 325 323 310 309 305 287 259 253 245 229 215 208 201 194 190 191 191
213 138 223 268 326 285 300 199 193 248 264 261 340 127 258 284 290 291 303 308 307 314 322 329 326 319 313 322 318 316 312 301 283 261 251 245 231 208 198 201 193 195 199 194
190 210 204 246 212 211 208 176 154 266 300 3 339 326 301 270 283 297 298 305 314 321 325 329 330 328 326 327 321 318 313 300 282 268 250 229 214 208 201 193 193 211 206 198